Hoonah, AK

6:41 PM AKDT on June 26, 2017 (GMT -0800)
Hoonah

Weather History for PAOH - October, 2014

Change the Weather History Date:

Friday, October 3, 2014

  Actual Average Record
Temperature  
Mean Temperature 48 °F -  
Max Temperature 55 °F 49 °F 57 °F (2003)
Min Temperature 41 °F 39 °F 28 °F (2005)
Degree Days  
Heating Degree Days 17    
Moisture  
Dew Point 48 °F    
Average Humidity 100    
Maximum Humidity 100    
Minimum Humidity 94    
Precipitation  
Precipitation 1.03 in - - ()
Sea Level Pressure  
Sea Level Pressure 29.48 in    
Wind  
Wind Speed 11 mph (East)    
Max Wind Speed 18 mph    
Max Gust Speed 25 mph    
Visibility 4 miles    
Events Rain    
Averages and records for this station are not official NWS values.
T = Trace of Precipitation, MM = Missing Value Source: NWS Daily Summary

Daily Weather History Graph

Daily Weather History Graph

Search for Another Location

Airport or City:

Trip Planner

Search our weather history database for the weather conditions in past years. The results will help you decide how hot, cold, wet, or windy it might be!

Date:

Astronomy

Oct. 03, 2014 Rise Set
Actual Time 7:10 AM AKDT 6:29 PM AKDT
Civil Twilight 6:31 AM AKDT 7:08 PM AKDT
Nautical Twilight 5:45 AM AKDT 7:54 PM AKDT
Astronomical Twilight 4:57 AM AKDT 8:41 PM AKDT
Moon 4:23 PM AKDT (10/3) 12:36 AM AKDT (10/3)
Length of Visible Light 12h 36m
Length of Day
11h 18m
Waxing Gibbous, 72% of the Moon is Illuminated
Oct 3
Waxing Gibbous
Oct 8
Full
Oct 15
Last Quarter
Oct 23
New
Oct 30
First Quarter

Hourly Weather History & Observations

Time (AKDT) Temp. Windchill Dew Point Humidity Pressure Visibility Wind Dir Wind Speed Gust Speed Precip Events Conditions
12:05 AM 41.0 °F 35.2 °F 41.0 °F 100% 29.61 in 2.5 mi East 9.2 mph - 0.04 in Rain Rain
12:10 AM 41.0 °F 35.2 °F 41.0 °F 100% 29.61 in 2.5 mi East 9.2 mph - 0.05 in Rain Rain
12:12 AM 41.0 °F 35.8 °F 41.0 °F 100% 29.62 in 3.0 mi ESE 8.1 mph - 0.06 in Rain Light Rain
12:56 AM 41.0 °F 35.2 °F 41.0 °F 100% 29.60 in 4.0 mi East 9.2 mph - N/A Rain Light Rain
1:02 AM 42.8 °F 37.0 °F 42.8 °F 100% 29.59 in 2.5 mi East 10.4 mph - 0.01 in Rain Light Rain
1:10 AM 41.0 °F 34.3 °F 41.0 °F 100% 29.59 in 3.0 mi East 11.5 mph - 0.01 in Rain Light Rain
1:24 AM 41.0 °F 33.9 °F 41.0 °F 100% 29.58 in 4.0 mi East 12.7 mph 18.4 mph 0.02 in   Overcast
1:41 AM 42.8 °F 36.2 °F 42.8 °F 100% 29.57 in 3.0 mi East 12.7 mph 20.7 mph 0.02 in   Overcast
1:56 AM 41.9 °F 34.3 °F 41.9 °F 100% 29.57 in 4.0 mi East 15.0 mph 20.7 mph 0.02 in   Overcast
2:32 AM 42.8 °F 36.2 °F 42.8 °F 100% 29.56 in 4.0 mi East 12.7 mph - 0.02 in Rain Light Rain
2:56 AM 41.9 °F 34.6 °F 41.9 °F 100% 29.55 in 4.0 mi East 13.8 mph - 0.05 in Rain Light Rain
3:56 AM 42.8 °F 35.1 °F 42.8 °F 100% 29.53 in 3.0 mi ESE 16.1 mph 21.9 mph N/A Rain Light Rain
4:56 AM 43.0 °F 36.4 °F 43.0 °F 100% 29.53 in 4.0 mi East 12.7 mph - 0.08 in Rain Light Rain
5:56 AM 43.9 °F 37.5 °F 43.9 °F 100% 29.52 in 4.0 mi East 12.7 mph 19.6 mph 0.01 in Rain Light Rain
6:19 AM 44.6 °F 38.1 °F 44.6 °F 100% 29.51 in 4.0 mi East 13.8 mph 18.4 mph 0.02 in Rain Light Rain
6:56 AM 44.6 °F 38.1 °F 44.6 °F 100% 29.49 in 4.0 mi East 13.8 mph - N/A Rain Light Rain
7:34 AM 44.6 °F 37.2 °F 44.6 °F 100% 29.48 in 8.0 mi East 17.3 mph 21.9 mph 0.02 in Rain Light Rain
7:56 AM 45.0 °F 37.9 °F 45.0 °F 100% 29.48 in 3.0 mi East 16.1 mph 24.2 mph 0.05 in Rain Light Rain
8:15 AM 44.6 °F 37.8 °F 44.6 °F 100% 29.48 in 3.0 mi East 15.0 mph - 0.04 in Rain Light Rain
8:56 AM 45.0 °F 37.4 °F 45.0 °F 100% 29.48 in 3.0 mi East 18.4 mph 23.0 mph 0.12 in Rain Light Rain
9:07 AM 44.6 °F 37.8 °F 44.6 °F 100% 29.46 in 1.8 mi East 15.0 mph - 0.03 in Rain Light Rain
9:13 AM 44.6 °F 38.1 °F 44.6 °F 100% 29.46 in 2.0 mi East 13.8 mph 21.9 mph 0.05 in Rain Rain
9:23 AM 44.6 °F 37.4 °F 44.6 °F 100% 29.44 in 3.0 mi East 16.1 mph 19.6 mph 0.07 in Rain Light Rain
9:43 AM 44.6 °F 37.4 °F 44.6 °F 100% 29.45 in 6.0 mi East 16.1 mph 23.0 mph 0.08 in Rain Light Rain
9:56 AM 44.6 °F 39.2 °F 44.6 °F 100% 29.46 in 3.0 mi ENE 10.4 mph - N/A Rain Rain
10:10 AM 46.4 °F 40.1 °F 46.4 °F 100% 29.45 in 2.5 mi East 15.0 mph - 0.04 in Rain Rain
10:33 AM 46.4 °F 40.4 °F 46.4 °F 100% 29.44 in 3.0 mi East 13.8 mph - 0.07 in Rain Light Rain
10:56 AM 45.9 °F 39.7 °F 45.9 °F 100% 29.43 in 7.0 mi East 13.8 mph 25.3 mph 0.08 in Rain Light Rain
11:10 AM 46.4 °F 39.2 °F 46.4 °F 100% 29.42 in 7.0 mi East 18.4 mph - 0.00 in Rain Light Rain
11:56 AM 46.9 °F - 46.9 °F 100% 29.42 in 2.0 mi ENE 13.8 mph 21.9 mph 0.07 in Rain Rain
12:56 PM 48.2 °F - 48.2 °F 100% 29.41 in 1.5 mi East 17.3 mph 23.0 mph N/A Rain Rain
1:14 PM 48.2 °F - 48.2 °F 100% 29.39 in 2.5 mi East 15.0 mph - 0.05 in Rain Light Rain
1:23 PM 50.0 °F - 50.0 °F 100% 29.39 in 3.0 mi East 13.8 mph 21.9 mph 0.06 in Rain Light Rain
1:27 PM 51.8 °F - 50.0 °F 94% 29.39 in 2.0 mi East 15.0 mph 21.9 mph 0.07 in Rain Light Rain
1:39 PM 51.8 °F - 51.8 °F 100% 29.39 in 1.8 mi East 15.0 mph 20.7 mph 0.12 in Rain Rain
1:56 PM 50.9 °F - 50.9 °F 100% 29.39 in 5.0 mi East 15.0 mph - 0.14 in Rain Light Rain
2:04 PM 51.8 °F - 51.8 °F 100% 29.38 in 2.5 mi East 10.4 mph - 0.00 in Rain Light Rain
2:56 PM 54.0 °F - 54.0 °F 100% 29.39 in 1.8 mi East 12.7 mph - 0.12 in Rain Rain
3:12 PM 55.4 °F - 53.6 °F 94% 29.38 in 3.0 mi ENE 8.1 mph - 0.01 in Rain Light Rain
3:37 PM 55.4 °F - 55.4 °F 100% 29.38 in 1.8 mi ENE 9.2 mph - 0.05 in Rain Rain
3:56 PM 55.4 °F - 55.4 °F 100% 29.39 in 2.0 mi ENE 5.8 mph - N/A Rain Rain
4:05 PM 55.4 °F - 55.4 °F 100% 29.39 in 3.0 mi Calm Calm - 0.01 in Rain Rain
4:40 PM 55.4 °F - 55.4 °F 100% 29.40 in 1.8 mi Calm Calm - 0.10 in Rain Rain
4:56 PM 54.0 °F - 54.0 °F 100% 29.41 in 1.5 mi WSW 3.5 mph - 0.14 in Rain Rain
5:40 PM 53.6 °F - 53.6 °F 100% 29.42 in 3.0 mi Variable 4.6 mph - 0.13 in Rain Light Rain
5:56 PM 54.0 °F - 54.0 °F 100% 29.43 in 10.0 mi Variable 5.8 mph - 0.13 in   Mostly Cloudy
6:56 PM 53.6 °F - 53.6 °F 100% 29.43 in 9.0 mi ENE 4.6 mph - N/A Rain Light Rain
7:56 PM 52.9 °F - 52.9 °F 100% 29.47 in 8.0 mi North 3.5 mph - 0.00 in Rain Light Rain
8:56 PM 52.9 °F - 52.9 °F 100% 29.49 in 9.0 mi ENE 6.9 mph - 0.00 in Rain Light Rain
9:56 PM 51.8 °F - 51.8 °F 100% 29.52 in 10.0 mi SE 3.5 mph - N/A Rain Light Rain
10:56 PM 52.0 °F - 52.0 °F 100% 29.55 in 8.0 mi East 3.5 mph - 0.01 in Rain Light Rain
11:21 PM 51.8 °F - 51.8 °F 100% 29.55 in 9.0 mi Calm Calm - 0.01 in Rain Light Rain
11:56 PM 52.0 °F - 52.0 °F 100% 29.57 in 10.0 mi Variable 3.5 mph - 0.01 in Rain Light Rain